Time,TemperatureF,DewpointF,PressureIn,WindDirection,WindDirectionDegrees,WindSpeedMPH,WindSpeedGustMPH,Humidity,HourlyPrecipIn,Conditions,Clouds,dailyrainin,SoftwareType,DateUTC
2013-01-15 00:14:00,33.3,25.9,30.19,WSW,247,0.0,-999.0,74,-99.99,,,0.00,Acu-Link.com,2013-01-15 05:14:00,
2013-01-15 00:29:00,33.1,27.0,30.19,NNE,22,0.0,-999.0,78,-99.99,,,0.00,Acu-Link.com,2013-01-15 05:29:00,
2013-01-15 00:45:00,33.1,25.7,30.20,WSW,247,1.7,-999.0,74,-99.99,,,0.00,Acu-Link.com,2013-01-15 05:45:00,
2013-01-15 01:00:00,32.7,24.7,30.20,West,270,0.0,-999.0,72,-99.99,,,0.00,Acu-Link.com,2013-01-15 06:00:00,
2013-01-15 01:15:00,32.4,24.7,30.19,West,270,0.0,-999.0,73,-99.99,,,0.00,Acu-Link.com,2013-01-15 06:15:00,
2013-01-15 01:30:00,32.0,24.0,30.19,West,270,0.0,-999.0,72,-99.99,,,0.00,Acu-Link.com,2013-01-15 06:30:00,
2013-01-15 01:46:00,31.5,23.5,30.20,West,270,0.0,-999.0,72,-99.99,,,0.00,Acu-Link.com,2013-01-15 06:46:00,
2013-01-15 02:01:00,30.6,23.3,30.20,West,270,0.0,-999.0,74,-99.99,,,0.00,Acu-Link.com,2013-01-15 07:01:00,
2013-01-15 02:16:00,29.8,23.8,30.21,West,270,0.0,-999.0,78,-99.99,,,0.00,Acu-Link.com,2013-01-15 07:16:00,
2013-01-15 02:31:00,29.1,23.4,30.20,West,270,0.0,-999.0,79,-99.99,,,0.00,Acu-Link.com,2013-01-15 07:31:00,
2013-01-15 02:46:00,28.4,23.0,30.19,West,270,0.0,-999.0,80,-99.99,,,0.00,Acu-Link.com,2013-01-15 07:46:00,
2013-01-15 03:02:00,28.2,22.2,30.18,West,270,0.0,-999.0,78,-99.99,,,0.00,Acu-Link.com,2013-01-15 08:02:00,
2013-01-15 03:17:00,28.0,22.6,30.18,West,270,0.0,-999.0,80,-99.99,,,0.00,Acu-Link.com,2013-01-15 08:17:00,
2013-01-15 03:32:00,27.7,22.6,30.18,West,270,0.0,-999.0,81,-99.99,,,0.00,Acu-Link.com,2013-01-15 08:32:00,
2013-01-15 03:47:00,27.3,22.5,30.19,West,270,0.0,-999.0,82,-99.99,,,0.00,Acu-Link.com,2013-01-15 08:47:00,
2013-01-15 04:13:00,27.1,22.9,30.18,West,270,0.0,-999.0,84,-99.99,,,0.00,Acu-Link.com,2013-01-15 09:13:00,
2013-01-15 04:29:00,27.1,21.8,30.20,West,270,0.0,-999.0,80,-99.99,,,0.00,Acu-Link.com,2013-01-15 09:29:00,
2013-01-15 04:44:00,26.8,21.8,30.19,West,270,0.0,-999.0,81,-99.99,,,0.00,Acu-Link.com,2013-01-15 09:44:00,
2013-01-15 04:59:00,26.4,21.4,30.20,NNE,22,0.0,-999.0,81,-99.99,,,0.00,Acu-Link.com,2013-01-15 09:59:00,
2013-01-15 05:14:00,26.4,21.4,30.20,NNE,22,0.0,-999.0,81,-99.99,,,0.00,Acu-Link.com,2013-01-15 10:14:00,
2013-01-15 05:29:00,26.1,21.1,30.21,NNE,22,0.0,-999.0,81,-99.99,,,0.00,Acu-Link.com,2013-01-15 10:29:00,
2013-01-15 05:44:00,25.5,21.6,30.21,West,270,0.0,-999.0,85,-99.99,,,0.00,Acu-Link.com,2013-01-15 10:44:00,
2013-01-15 06:00:00,25.3,22.0,30.21,West,270,0.0,-999.0,87,-99.99,,,0.00,Acu-Link.com,2013-01-15 11:00:00,
2013-01-15 06:15:00,25.2,22.2,30.21,West,270,0.0,-999.0,88,-99.99,,,0.00,Acu-Link.com,2013-01-15 11:15:00,
2013-01-15 06:30:00,25.3,21.7,30.22,West,270,0.0,-999.0,86,-99.99,,,0.00,Acu-Link.com,2013-01-15 11:30:00,
2013-01-15 06:45:00,25.3,22.0,30.23,West,270,1.1,-999.0,87,-99.99,,,0.00,Acu-Link.com,2013-01-15 11:45:00,
2013-01-15 07:00:00,25.3,22.3,30.24,West,270,0.0,-999.0,88,-99.99,,,0.00,Acu-Link.com,2013-01-15 12:00:00,
2013-01-15 07:16:00,25.3,22.0,30.25,WNW,292,0.0,-999.0,87,-99.99,,,0.00,Acu-Link.com,2013-01-15 12:16:00,
2013-01-15 07:31:00,25.0,22.2,30.25,WNW,292,0.0,-999.0,89,-99.99,,,0.00,Acu-Link.com,2013-01-15 12:31:00,
2013-01-15 07:46:00,25.0,22.0,30.26,WNW,292,0.0,-999.0,88,-99.99,,,0.00,Acu-Link.com,2013-01-15 12:46:00,
2013-01-15 08:01:00,25.3,22.0,30.26,NW,315,0.0,-999.0,87,-99.99,,,0.00,Acu-Link.com,2013-01-15 13:01:00,
2013-01-15 08:16:00,25.7,22.1,30.27,NW,315,0.0,-999.0,86,-99.99,,,0.00,Acu-Link.com,2013-01-15 13:16:00,
2013-01-15 08:32:00,26.4,22.5,30.27,NW,315,0.0,-999.0,85,-99.99,,,0.00,Acu-Link.com,2013-01-15 13:32:00,
2013-01-15 08:47:00,27.3,22.8,30.28,WNW,292,0.0,-999.0,83,-99.99,,,0.00,Acu-Link.com,2013-01-15 13:47:00,
2013-01-15 09:02:00,29.7,24.6,30.28,West,270,0.0,-999.0,81,-99.99,,,0.00,Acu-Link.com,2013-01-15 14:02:00,
2013-01-15 09:17:00,32.5,24.8,30.27,ESE,112,0.0,-999.0,73,-99.99,,,0.00,Acu-Link.com,2013-01-15 14:17:00,
2013-01-15 09:32:00,30.9,24.2,30.28,SW,225,0.0,-999.0,76,-99.99,,,0.00,Acu-Link.com,2013-01-15 14:32:00,
2013-01-15 09:48:00,31.5,23.5,30.28,West,270,0.0,-999.0,72,-99.99,,,0.00,Acu-Link.com,2013-01-15 14:48:00,
2013-01-15 10:03:00,31.3,23.7,30.29,WSW,247,0.0,-999.0,73,-99.99,,,0.00,Acu-Link.com,2013-01-15 15:03:00,
2013-01-15 10:18:00,31.3,23.7,30.29,East,90,0.0,-999.0,73,-99.99,,,0.00,Acu-Link.com,2013-01-15 15:18:00,
2013-01-15 10:33:00,31.8,23.5,30.29,SE,135,0.0,-999.0,71,-99.99,,,0.00,Acu-Link.com,2013-01-15 15:33:00,
2013-01-15 10:48:00,32.2,22.8,30.28,SE,135,2.2,-999.0,68,-99.99,,,0.00,Acu-Link.com,2013-01-15 15:48:00,
2013-01-15 11:04:00,32.0,23.0,30.27,ESE,112,0.0,-999.0,69,-99.99,,,0.00,Acu-Link.com,2013-01-15 16:04:00,
2013-01-15 11:19:00,32.5,23.1,30.26,SE,135,2.7,-999.0,68,-99.99,,,0.00,Acu-Link.com,2013-01-15 16:19:00,
2013-01-15 11:34:00,33.1,24.1,30.25,ESE,112,4.2,-999.0,69,-99.99,,,0.00,Acu-Link.com,2013-01-15 16:34:00,
2013-01-15 11:49:00,32.4,23.4,30.25,East,90,4.2,-999.0,69,-99.99,,,0.00,Acu-Link.com,2013-01-15 16:49:00,
2013-01-15 12:05:00,33.3,23.5,30.23,SE,135,3.2,-999.0,67,-99.99,,,0.00,Acu-Link.com,2013-01-15 17:05:00,
2013-01-15 12:20:00,35.1,24.5,30.22,SW,225,2.2,-999.0,65,-99.99,,,0.00,Acu-Link.com,2013-01-15 17:20:00,
2013-01-15 12:35:00,34.2,23.7,30.22,ESE,112,0.0,-999.0,65,-99.99,,,0.00,Acu-Link.com,2013-01-15 17:35:00,
2013-01-15 12:50:00,33.8,23.3,30.21,NW,315,0.0,-999.0,65,-99.99,,,0.00,Acu-Link.com,2013-01-15 17:50:00,
2013-01-15 13:05:00,33.1,23.0,30.19,East,90,2.7,-999.0,66,-99.99,,,0.00,Acu-Link.com,2013-01-15 18:05:00,
2013-01-15 13:21:00,33.1,23.4,30.18,ESE,112,2.7,-999.0,67,-99.99,,,0.00,Acu-Link.com,2013-01-15 18:21:00,
2013-01-15 13:36:00,34.5,23.6,30.18,ESE,112,1.7,-999.0,64,-99.99,,,0.00,Acu-Link.com,2013-01-15 18:36:00,
2013-01-15 13:51:00,34.7,23.8,30.19,ESE,112,0.0,-999.0,64,-99.99,,,0.00,Acu-Link.com,2013-01-15 18:51:00,
2013-01-15 14:06:00,34.7,23.4,30.18,NNE,22,1.7,-999.0,63,-99.99,,,0.00,Acu-Link.com,2013-01-15 19:06:00,
2013-01-15 14:21:00,35.1,23.8,30.20,SE,135,1.7,-999.0,63,-99.99,,,0.00,Acu-Link.com,2013-01-15 19:21:00,
2013-01-15 14:37:00,35.8,24.5,30.20,West,270,0.0,-999.0,63,-99.99,,,0.00,Acu-Link.com,2013-01-15 19:37:00,
2013-01-15 14:52:00,35.6,24.3,30.20,WSW,247,0.0,-999.0,63,-99.99,,,0.00,Acu-Link.com,2013-01-15 19:52:00,
2013-01-15 15:07:00,35.4,23.7,30.19,East,90,0.0,-999.0,62,-99.99,,,0.00,Acu-Link.com,2013-01-15 20:07:00,
2013-01-15 15:22:00,35.1,23.8,30.19,NW,315,1.1,-999.0,63,-99.99,,,0.00,Acu-Link.com,2013-01-15 20:22:00,
2013-01-15 15:37:00,34.7,23.8,30.18,East,90,0.0,-999.0,64,-99.99,,,0.00,Acu-Link.com,2013-01-15 20:37:00,
2013-01-15 15:53:00,34.3,23.8,30.18,East,90,0.0,-999.0,65,-99.99,,,0.00,Acu-Link.com,2013-01-15 20:53:00,
2013-01-15 16:08:00,34.2,23.7,30.17,East,90,0.0,-999.0,65,-99.99,,,0.00,Acu-Link.com,2013-01-15 21:08:00,
2013-01-15 16:23:00,33.8,23.3,30.18,ESE,112,0.0,-999.0,65,-99.99,,,0.00,Acu-Link.com,2013-01-15 21:23:00,
2013-01-15 16:38:00,33.4,24.3,30.19,East,90,0.0,-999.0,69,-99.99,,,0.00,Acu-Link.com,2013-01-15 21:38:00,
2013-01-15 16:53:00,32.7,23.7,30.18,NNW,337,0.0,-999.0,69,-99.99,,,0.00,Acu-Link.com,2013-01-15 21:53:00,
2013-01-15 17:09:00,32.0,24.0,30.18,NNW,337,0.0,-999.0,72,-99.99,,,0.00,Acu-Link.com,2013-01-15 22:09:00,
2013-01-15 17:24:00,30.9,23.9,30.20,WNW,292,0.0,-999.0,75,-99.99,,,0.00,Acu-Link.com,2013-01-15 22:24:00,
2013-01-15 17:39:00,30.4,24.4,30.20,WNW,292,0.0,-999.0,78,-99.99,,,0.00,Acu-Link.com,2013-01-15 22:39:00,
2013-01-15 17:54:00,30.4,24.7,30.20,WNW,292,0.0,-999.0,79,-99.99,,,0.00,Acu-Link.com,2013-01-15 22:54:00,
2013-01-15 18:10:00,29.8,24.4,30.19,West,270,0.0,-999.0,80,-99.99,,,0.00,Acu-Link.com,2013-01-15 23:10:00,
2013-01-15 18:25:00,29.8,24.4,30.19,SE,135,0.0,-999.0,80,-99.99,,,0.00,Acu-Link.com,2013-01-15 23:25:00,
2013-01-15 18:40:00,29.7,24.6,30.18,West,270,0.0,-999.0,81,-99.99,,,0.00,Acu-Link.com,2013-01-15 23:40:00,
2013-01-15 18:55:00,29.7,24.0,30.18,West,270,0.0,-999.0,79,-99.99,,,0.00,Acu-Link.com,2013-01-15 23:55:00,
2013-01-15 19:10:00,29.7,25.5,30.18,West,270,0.0,-999.0,84,-99.99,,,0.00,Acu-Link.com,2013-01-16 00:10:00,
2013-01-15 19:26:00,29.8,24.7,30.17,West,270,0.0,-999.0,81,-99.99,,,0.00,Acu-Link.com,2013-01-16 00:26:00,
2013-01-15 19:41:00,29.8,24.7,30.16,West,270,0.0,-999.0,81,-99.99,,,0.00,Acu-Link.com,2013-01-16 00:41:00,
2013-01-15 19:56:00,30.0,25.2,30.15,WSW,247,0.0,-999.0,82,-99.99,,,0.00,Acu-Link.com,2013-01-16 00:56:00,
2013-01-15 20:11:00,30.2,25.4,30.15,SW,225,0.0,-999.0,82,-99.99,,,0.00,Acu-Link.com,2013-01-16 01:11:00,
2013-01-15 20:26:00,30.0,25.5,30.14,ESE,112,0.0,-999.0,83,-99.99,,,0.00,Acu-Link.com,2013-01-16 01:26:00,
2013-01-15 20:42:00,30.2,25.4,30.14,NNE,22,0.0,-999.0,82,-99.99,,,0.00,Acu-Link.com,2013-01-16 01:42:00,
2013-01-15 20:57:00,30.2,25.7,30.14,WNW,292,0.0,-999.0,83,-99.99,,,0.00,Acu-Link.com,2013-01-16 01:57:00,
2013-01-15 21:12:00,30.6,26.1,30.13,ESE,112,0.0,-999.0,83,-99.99,,,0.00,Acu-Link.com,2013-01-16 02:12:00,
2013-01-15 21:27:00,30.6,26.1,30.12,NNE,22,0.0,-999.0,83,-99.99,,,0.00,Acu-Link.com,2013-01-16 02:27:00,
2013-01-15 21:42:00,30.7,25.9,30.12,North,0,0.0,-999.0,82,-99.99,,,0.00,Acu-Link.com,2013-01-16 02:42:00,
2013-01-15 21:58:00,30.7,25.9,30.11,North,0,0.0,-999.0,82,-99.99,,,0.00,Acu-Link.com,2013-01-16 02:58:00,
2013-01-15 22:13:00,30.9,26.4,30.12,West,270,0.0,-999.0,83,-99.99,,,0.00,Acu-Link.com,2013-01-16 03:13:00,
2013-01-15 22:28:00,31.1,26.3,30.13,West,270,0.0,-999.0,82,-99.99,,,0.00,Acu-Link.com,2013-01-16 03:28:00,
2013-01-15 22:43:00,31.1,26.3,30.12,West,270,0.0,-999.0,82,-99.99,,,0.00,Acu-Link.com,2013-01-16 03:43:00,
2013-01-15 22:59:00,31.1,26.0,30.11,West,270,0.0,-999.0,81,-99.99,,,0.00,Acu-Link.com,2013-01-16 03:59:00,
2013-01-15 23:14:00,30.9,25.5,30.10,West,270,0.0,-999.0,80,-99.99,,,0.00,Acu-Link.com,2013-01-16 04:14:00,
2013-01-15 23:29:00,30.9,25.5,30.09,ESE,112,0.0,-999.0,80,-99.99,,,0.00,Acu-Link.com,2013-01-16 04:29:00,
2013-01-15 23:44:00,30.6,26.6,30.09,ESE,112,0.0,-999.0,85,-99.99,,,0.00,Acu-Link.com,2013-01-16 04:44:00,